| time (UTC) | temp F | wind direction | speed knots | gust knots | rain 1hr in | rain 24hr in | rain mn in | humidity % | barometer mb |
| 20260508030205 | 52 | 94 | 0.0 | 0.0 | 0.00 | 0.14 | 0.00 | 93 | 1012.6 |
| 20260508024705 | 53 | 94 | 0.0 | 0.0 | 0.00 | 0.14 | 0.00 | 93 | 1012.3 |
| 20260508024204 | 53 | 94 | 0.0 | 0.0 | 0.00 | 0.14 | 0.00 | 93 | 1012.4 |
| 20260508023705 | 53 | 94 | 0.0 | 0.0 | 0.00 | 0.14 | 0.00 | 92 | 1012.5 |
| 20260508023205 | 53 | 94 | 0.0 | 0.0 | 0.00 | 0.14 | 0.00 | 92 | 1012.5 |
| 20260508021705 | 54 | 122 | 0.0 | 0.0 | 0.00 | 0.14 | 0.00 | 92 | 1012.7 |
| 20260508021204 | 54 | 122 | 0.0 | 0.0 | 0.00 | 0.14 | 0.00 | 92 | 1012.8 |
| 20260508020704 | 54 | 122 | 0.0 | 0.0 | 0.00 | 0.14 | 0.00 | 92 | 1012.8 |
| 20260508020205 | 54 | 196 | 0.0 | 0.0 | 0.00 | 0.14 | 0.00 | 92 | 1012.8 |
| 20260508013705 | 54 | 196 | 0.0 | 0.0 | 0.00 | 0.14 | 0.00 | 92 | 1012.9 |
| 20260508013204 | 54 | 196 | 0.0 | 0.0 | 0.00 | 0.14 | 0.00 | 92 | 1013.0 |
| 20260508011705 | 54 | 300 | 0.0 | 0.9 | 0.00 | 0.14 | 0.00 | 92 | 1013.1 |
| 20260508010705 | 54 | 300 | 0.0 | 0.0 | 0.00 | 0.14 | 0.00 | 92 | 1013.4 |
| 20260508010204 | 55 | 300 | 0.0 | 0.0 | 0.00 | 0.14 | 0.00 | 92 | 1013.4 |
| 20260508004705 | 55 | 300 | 0.0 | 0.0 | 0.00 | 0.14 | 0.00 | 92 | 1013.6 |
| 20260508003205 | 55 | 290 | 0.0 | 0.0 | 0.00 | 0.14 | 0.00 | 92 | 1013.5 |
| 20260508001704 | 55 | 290 | 0.0 | 0.0 | 0.00 | 0.14 | 0.00 | 92 | 1013.6 |
| 20260508001205 | 55 | 290 | 0.0 | 0.0 | 0.00 | 0.14 | 0.00 | 91 | 1013.7 |
| 20260508000704 | 55 | 290 | 0.0 | 0.0 | 0.00 | 0.14 | 0.00 | 91 | 1013.7 |
| 20260508000205 | 55 | 290 | 0.0 | 0.0 | 0.00 | 0.14 | 0.00 | 91 | 1013.8 |
| 20260507234705 | 55 | 290 | 0.0 | 0.0 | 0.00 | 0.14 | 0.00 | 91 | 1013.9 |
| 20260507234205 | 55 | 286 | 0.0 | 0.0 | 0.00 | 0.14 | 0.00 | 91 | 1014.0 |
| 20260507233704 | 55 | 286 | 0.0 | 0.0 | 0.00 | 0.14 | 0.00 | 91 | 1014.0 |
| 20260507233204 | 55 | 288 | 0.0 | 2.6 | 0.00 | 0.14 | 0.00 | 91 | 1013.9 |
| 20260507231704 | 56 | 263 | 0.0 | 0.0 | 0.00 | 0.14 | 0.00 | 91 | 1014.0 |
| 20260507231205 | 56 | 263 | 0.0 | 0.0 | 0.00 | 0.14 | 0.00 | 91 | 1014.0 |
| 20260507230705 | 56 | 263 | 0.9 | 2.6 | 0.00 | 0.14 | 0.00 | 91 | 1013.9 |
| 20260507230204 | 55 | 262 | 2.6 | 2.6 | 0.00 | 0.14 | 0.00 | 91 | 1013.9 |
| 20260507224705 | 55 | 9 | 0.0 | 0.0 | 0.00 | 0.14 | 0.00 | 92 | 1014.1 |
| 20260507224204 | 55 | 9 | 0.0 | 0.0 | 0.00 | 0.14 | 0.00 | 92 | 1014.1 |
| 20260507223705 | 55 | 9 | 0.0 | 0.0 | 0.00 | 0.14 | 0.00 | 92 | 1014.1 |
| 20260507223204 | 55 | 9 | 0.0 | 0.0 | 0.00 | 0.14 | 0.00 | 92 | 1014.0 |
| 20260507221704 | 55 | 9 | 0.0 | 0.0 | 0.00 | 0.14 | 0.00 | 91 | 1013.9 |
| 20260507221204 | 55 | 9 | 0.0 | 0.0 | 0.00 | 0.14 | 0.00 | 91 | 1013.9 |
| 20260507220704 | 56 | 5 | 0.0 | 0.0 | 0.00 | 0.14 | 0.00 | 91 | 1013.8 |
| 20260507214705 | 56 | 29 | 0.0 | 0.0 | 0.00 | 0.14 | 0.14 | 90 | 1013.8 |
| 20260507214204 | 56 | 29 | 0.0 | 0.0 | 0.00 | 0.14 | 0.14 | 89 | 1013.9 |
| 20260507213705 | 56 | 29 | 0.9 | 1.7 | 0.00 | 0.14 | 0.14 | 89 | 1013.9 |
| 20260507213205 | 56 | 29 | 0.0 | 2.6 | 0.00 | 0.14 | 0.14 | 89 | 1013.9 |
| 20260507211705 | 56 | 200 | 0.9 | 2.6 | 0.00 | 0.14 | 0.14 | 89 | 1013.6 |
| 20260507210705 | 56 | 178 | 2.6 | 6.1 | 0.00 | 0.14 | 0.14 | 89 | 1013.5 |
| 20260507210204 | 56 | 174 | 0.9 | 4.3 | 0.00 | 0.14 | 0.14 | 89 | 1013.5 |
| 20260507204705 | 56 | 142 | 0.9 | 4.3 | 0.01 | 0.14 | 0.14 | 89 | 1013.5 |
| 20260507204205 | 56 | 169 | 2.6 | 4.3 | 0.01 | 0.14 | 0.14 | 89 | 1013.5 |
| 20260507201705 | 56 | 128 | 0.0 | 0.0 | 0.03 | 0.14 | 0.14 | 90 | 1013.3 |
| 20260507201205 | 56 | 177 | 0.0 | 1.7 | 0.04 | 0.14 | 0.14 | 89 | 1013.3 |
| 20260507200705 | 56 | 176 | 0.9 | 2.6 | 0.05 | 0.14 | 0.14 | 89 | 1013.2 |
| 20260507200206 | 56 | 177 | 0.9 | 4.3 | 0.07 | 0.14 | 0.14 | 89 | 1013.2 |
| 20260507194704 | 57 | 82 | 0.0 | 0.0 | 0.09 | 0.13 | 0.13 | 89 | 1013.1 |
| 20260507194205 | 57 | 80 | 0.0 | 1.7 | 0.09 | 0.13 | 0.13 | 89 | 1013.2 |
| 20260507193205 | 57 | 80 | 0.0 | 2.6 | 0.12 | 0.13 | 0.13 | 89 | 1013.1 |
| 20260507191204 | 58 | 34 | 1.7 | 5.2 | 0.09 | 0.10 | 0.10 | 87 | 1013.1 |
| 20260507190205 | 59 | 27 | 1.7 | 2.6 | 0.06 | 0.07 | 0.07 | 84 | 1013.0 |
| 20260507184705 | 59 | 128 | 0.0 | 2.6 | 0.02 | 0.04 | 0.04 | 83 | 1012.7 |
| 20260507184204 | 59 | 219 | 2.6 | 5.2 | 0.02 | 0.04 | 0.04 | 81 | 1012.4 |
| 20260507183704 | 59 | 198 | 1.7 | 4.3 | 0.01 | 0.02 | 0.02 | 81 | 1012.4 |
| 20260507183204 | 60 | 158 | 1.7 | 7.0 | 0.00 | 0.02 | 0.02 | 80 | 1012.3 |
| 20260507181705 | 60 | 266 | 4.3 | 11.3 | 0.00 | 0.02 | 0.02 | 78 | 1012.1 |
| 20260507181204 | 60 | 254 | 6.1 | 10.4 | 0.00 | 0.02 | 0.02 | 77 | 1012.1 |
| 20260507180704 | 60 | 262 | 5.2 | 10.4 | 0.00 | 0.02 | 0.02 | 77 | 1012.0 |
| 20260507180205 | 61 | 245 | 4.3 | 10.4 | 0.00 | 0.02 | 0.02 | 76 | 1012.0 |
| 20260507174704 | 61 | 242 | 2.6 | 6.1 | 0.00 | 0.02 | 0.02 | 78 | 1011.9 |
| 20260507174204 | 61 | 248 | 2.6 | 6.1 | 0.00 | 0.02 | 0.02 | 77 | 1011.8 |
| 20260507173704 | 61 | 258 | 3.5 | 7.0 | 0.00 | 0.02 | 0.02 | 78 | 1011.7 |
| 20260507173204 | 61 | 240 | 4.3 | 10.4 | 0.00 | 0.02 | 0.02 | 76 | 1011.7 |
| 20260507171704 | 61 | 253 | 5.2 | 7.8 | 0.00 | 0.02 | 0.02 | 76 | 1011.7 |
| 20260507171204 | 61 | 250 | 4.3 | 10.4 | 0.00 | 0.02 | 0.02 | 76 | 1011.7 |
| 20260507170204 | 61 | 254 | 6.1 | 10.4 | 0.00 | 0.02 | 0.02 | 77 | 1011.6 |
| 20260507164704 | 62 | 250 | 5.2 | 10.4 | 0.00 | 0.02 | 0.02 | 81 | 1011.6 |
| 20260507163204 | 63 | 275 | 0.0 | 5.2 | 0.00 | 0.02 | 0.02 | 82 | 1011.5 |
| 20260507161705 | 63 | 311 | 0.9 | 2.6 | 0.00 | 0.02 | 0.02 | 81 | 1011.3 |
| 20260507161205 | 63 | 325 | 0.9 | 2.6 | 0.00 | 0.02 | 0.02 | 81 | 1011.2 |
| 20260507160704 | 64 | 299 | 1.7 | 2.6 | 0.00 | 0.02 | 0.02 | 81 | 1011.1 |
| 20260507160205 | 64 | 311 | 1.7 | 5.2 | 0.00 | 0.02 | 0.02 | 81 | 1011.1 |
| 20260507154704 | 64 | 308 | 0.0 | 4.3 | 0.00 | 0.02 | 0.02 | 80 | 1011.2 |
| 20260507154205 | 64 | 313 | 2.6 | 4.3 | 0.00 | 0.02 | 0.02 | 80 | 1011.2 |
| 20260507151705 | 65 | 10 | 2.6 | 6.1 | 0.00 | 0.02 | 0.02 | 70 | 1010.8 |
| 20260507151205 | 65 | 40 | 0.0 | 2.6 | 0.00 | 0.02 | 0.02 | 71 | 1010.7 |
| 20260507150704 | 65 | 59 | 0.0 | 2.6 | 0.00 | 0.02 | 0.02 | 71 | 1010.7 |
| 20260507150205 | 65 | 37 | 0.9 | 7.0 | 0.00 | 0.02 | 0.02 | 71 | 1010.8 |
| 20260507144705 | 64 | 59 | 1.7 | 7.8 | 0.00 | 0.02 | 0.02 | 75 | 1010.7 |
| 20260507144204 | 64 | 99 | 0.9 | 2.6 | 0.00 | 0.02 | 0.02 | 78 | 1010.8 |
| 20260507143704 | 64 | 333 | 0.0 | 2.6 | 0.00 | 0.02 | 0.02 | 81 | 1010.8 |
| 20260507143205 | 64 | 19 | 0.9 | 8.7 | 0.00 | 0.02 | 0.02 | 83 | 1010.7 |
| 20260507141704 | 64 | 22 | 1.7 | 4.3 | 0.00 | 0.02 | 0.02 | 84 | 1010.7 |
| 20260507140704 | 63 | 308 | 2.6 | 5.2 | 0.00 | 0.02 | 0.02 | 85 | 1010.8 |
| 20260507134704 | 63 | 319 | 2.6 | 6.1 | 0.00 | 0.02 | 0.02 | 83 | 1011.0 |
| 20260507134204 | 63 | 329 | 1.7 | 6.1 | 0.00 | 0.02 | 0.02 | 83 | 1011.0 |
| 20260507133704 | 63 | 321 | 2.6 | 6.1 | 0.00 | 0.02 | 0.02 | 82 | 1011.0 |
| 20260507131704 | 63 | 309 | 1.7 | 2.6 | 0.00 | 0.02 | 0.02 | 77 | 1011.1 |
| 20260507131204 | 63 | 320 | 1.7 | 2.6 | 0.00 | 0.02 | 0.02 | 76 | 1011.2 |
| 20260507130705 | 63 | 358 | 1.7 | 6.1 | 0.00 | 0.02 | 0.02 | 74 | 1011.2 |
| 20260507130204 | 63 | 353 | 3.5 | 7.0 | 0.00 | 0.02 | 0.02 | 73 | 1011.3 |
| 20260507124705 | 64 | 15 | 3.5 | 7.0 | 0.02 | 0.02 | 0.02 | 70 | 1011.4 |
| 20260507124204 | 65 | 13 | 6.1 | 8.7 | 0.02 | 0.02 | 0.02 | 70 | 1011.4 |
| 20260507123204 | 65 | 39 | 4.3 | 12.2 | 0.02 | 0.02 | 0.02 | 77 | 1011.5 |
| 20260507121204 | 65 | 350 | 2.6 | 8.7 | 0.02 | 0.02 | 0.02 | 81 | 1011.6 |
| 20260507120704 | 65 | 11 | 2.6 | 7.0 | 0.02 | 0.02 | 0.02 | 81 | 1011.7 |
| 20260507120204 | 65 | 356 | 3.5 | 6.1 | 0.02 | 0.02 | 0.02 | 79 | 1011.8 |
| 20260507114205 | 66 | 10 | 2.6 | 5.2 | 0.00 | 0.00 | 0.00 | 72 | 1012.0 |
| 20260507113704 | 66 | 16 | 2.6 | 7.0 | 0.00 | 0.00 | 0.00 | 70 | 1012.0 |
| 20260507113204 | 66 | 51 | 2.6 | 10.4 | 0.00 | 0.00 | 0.00 | 70 | 1012.0 |
| 20260507111704 | 67 | 2 | 4.3 | 8.7 | 0.00 | 0.00 | 0.00 | 68 | 1012.4 |
| 20260507110704 | 68 | 93 | 1.7 | 2.6 | 0.00 | 0.00 | 0.00 | 64 | 1012.4 |
| 20260507110204 | 67 | 66 | 1.7 | 6.1 | 0.00 | 0.00 | 0.00 | 66 | 1012.4 |
| 20260507104704 | 66 | 324 | 1.7 | 7.0 | 0.00 | 0.00 | 0.00 | 66 | 1012.5 |
| 20260507104204 | 66 | 356 | 1.7 | 4.3 | 0.00 | 0.00 | 0.00 | 66 | 1012.5 |
| 20260507103704 | 66 | 53 | 2.6 | 4.3 | 0.00 | 0.00 | 0.00 | 66 | 1012.5 |
| 20260507103205 | 66 | 36 | 1.7 | 7.8 | 0.00 | 0.00 | 0.00 | 67 | 1012.5 |
| 20260507101704 | 65 | 17 | 1.7 | 6.1 | 0.00 | 0.00 | 0.00 | 68 | 1012.6 |
| 20260507101204 | 65 | 354 | 1.7 | 2.6 | 0.00 | 0.00 | 0.00 | 69 | 1012.6 |
| 20260507100704 | 65 | 320 | 2.6 | 8.7 | 0.00 | 0.00 | 0.00 | 69 | 1012.7 |
| 20260507100204 | 65 | 19 | 1.7 | 4.3 | 0.00 | 0.00 | 0.00 | 68 | 1012.8 |
| 20260507094704 | 66 | 43 | 1.7 | 4.3 | 0.00 | 0.00 | 0.00 | 69 | 1012.9 |
| 20260507094204 | 66 | 97 | 0.9 | 2.6 | 0.00 | 0.00 | 0.00 | 69 | 1012.9 |
| 20260507093704 | 66 | 123 | 0.9 | 2.6 | 0.00 | 0.00 | 0.00 | 69 | 1012.9 |
| 20260507093204 | 65 | 40 | 0.9 | 2.6 | 0.00 | 0.00 | 0.00 | 70 | 1012.9 |
| 20260507091704 | 64 | 32 | 1.7 | 4.3 | 0.00 | 0.00 | 0.00 | 71 | 1013.0 |
| 20260507091205 | 64 | 18 | 1.7 | 4.3 | 0.00 | 0.00 | 0.00 | 71 | 1013.1 |
| 20260507090705 | 64 | 19 | 2.6 | 4.3 | 0.00 | 0.00 | 0.00 | 70 | 1013.1 |
| 20260507090205 | 65 | 64 | 0.0 | 4.3 | 0.00 | 0.00 | 0.00 | 71 | 1013.1 |
| 20260507084704 | 64 | 312 | 1.7 | 4.3 | 0.00 | 0.00 | 0.00 | 72 | 1012.8 |
| 20260507084204 | 64 | 0 | 0.9 | 2.6 | 0.00 | 0.00 | 0.00 | 72 | 1012.9 |
| 20260507083705 | 63 | 27 | 2.6 | 6.1 | 0.00 | 0.00 | 0.00 | 73 | 1013.0 |
| 20260507083204 | 63 | 40 | 0.0 | 2.6 | 0.00 | 0.00 | 0.00 | 74 | 1012.9 |
| 20260507081704 | 62 | 17 | 1.7 | 2.6 | 0.00 | 0.00 | 0.00 | 74 | 1012.8 |
| 20260507081204 | 62 | 333 | 0.0 | 2.6 | 0.00 | 0.00 | 0.00 | 74 | 1012.8 |
| 20260507080704 | 61 | 11 | 1.7 | 4.3 | 0.00 | 0.00 | 0.00 | 74 | 1012.9 |
| 20260507080204 | 61 | 340 | 0.9 | 4.3 | 0.00 | 0.00 | 0.00 | 73 | 1013.0 |
| 20260507074704 | 61 | 238 | 0.9 | 1.7 | 0.00 | 0.00 | 0.00 | 75 | 1013.0 |
| 20260507073704 | 61 | 292 | 0.0 | 0.0 | 0.00 | 0.00 | 0.00 | 77 | 1013.1 |
| 20260507073204 | 60 | 291 | 0.0 | 2.6 | 0.00 | 0.00 | 0.00 | 78 | 1013.1 |
| 20260507071704 | 60 | 304 | 0.9 | 2.6 | 0.00 | 0.00 | 0.00 | 81 | 1012.9 |
| 20260507071204 | 60 | 304 | 0.9 | 2.6 | 0.00 | 0.00 | 0.00 | 82 | 1012.8 |
| 20260507070704 | 59 | 9 | 0.0 | 0.0 | 0.00 | 0.00 | 0.00 | 83 | 1012.8 |
| 20260507064205 | 59 | 29 | 0.0 | 0.0 | 0.00 | 0.00 | 0.00 | 86 | 1012.7 |
| 20260507063204 | 58 | 29 | 0.0 | 0.0 | 0.00 | 0.00 | 0.00 | 86 | 1012.7 |
| 20260507061704 | 58 | 29 | 0.0 | 0.0 | 0.00 | 0.00 | 0.00 | 86 | 1012.6 |
| 20260507061204 | 58 | 29 | 0.0 | 0.0 | 0.00 | 0.00 | 0.00 | 86 | 1012.5 |
| 20260507060204 | 57 | 29 | 0.0 | 0.0 | 0.00 | 0.00 | 0.00 | 87 | 1012.5 |
| 20260507054704 | 57 | 28 | 0.0 | 0.0 | 0.00 | 0.00 | 0.00 | 86 | 1012.3 |
| 20260507053704 | 57 | 28 | 0.0 | 0.0 | 0.00 | 0.00 | 0.00 | 86 | 1012.1 |
| 20260507053204 | 57 | 298 | 0.0 | 0.0 | 0.00 | 0.00 | 0.00 | 86 | 1012.1 |
| 20260507051704 | 57 | 298 | 0.0 | 0.0 | 0.00 | 0.00 | 0.00 | 86 | 1011.9 |
| 20260507051205 | 57 | 298 | 0.0 | 0.0 | 0.00 | 0.00 | 0.00 | 86 | 1011.9 |
| 20260507050704 | 57 | 299 | 0.0 | 0.0 | 0.00 | 0.00 | 0.00 | 86 | 1011.9 |
| 20260507050205 | 57 | 299 | 0.0 | 0.0 | 0.00 | 0.00 | 0.00 | 86 | 1012.0 |
| 20260507044705 | 57 | 266 | 0.0 | 0.0 | 0.00 | 0.00 | 0.00 | 86 | 1012.1 |
| 20260507044204 | 57 | 266 | 0.0 | 0.0 | 0.00 | 0.00 | 0.00 | 86 | 1012.0 |
| 20260507043704 | 57 | 266 | 0.0 | 0.0 | 0.00 | 0.00 | 0.00 | 86 | 1012.0 |
| 20260507043204 | 57 | 266 | 0.0 | 0.0 | 0.00 | 0.00 | 0.00 | 86 | 1012.0 |
| 20260507041704 | 57 | 167 | 0.0 | 0.0 | 0.00 | 0.00 | 0.00 | 87 | 1011.9 |
| 20260507041204 | 57 | 167 | 0.0 | 0.0 | 0.00 | 0.00 | 0.00 | 87 | 1011.8 |
| 20260507040204 | 57 | 167 | 0.0 | 2.6 | 0.00 | 0.00 | 0.00 | 88 | 1011.6 |
| 20260507034704 | 56 | 29 | 0.0 | 0.0 | 0.00 | 0.00 | 0.00 | 88 | 1011.7 |
| 20260507034204 | 56 | 26 | 0.0 | 0.0 | 0.00 | 0.00 | 0.00 | 88 | 1011.7 |
| 20260507033704 | 56 | 23 | 0.0 | 0.0 | 0.00 | 0.00 | 0.00 | 88 | 1011.7 |
| 20260507031704 | 56 | 22 | 0.0 | 0.0 | 0.00 | 0.00 | 0.00 | 87 | 1011.8 |
| 20260507030704 | 56 | 22 | 0.0 | 0.0 | 0.00 | 0.00 | 0.00 | 86 | 1011.8 |